Location: Brantley
(31.5822°N, 86.2569°W)
Time: 00:49:25
(UTC+00:00)

Vanguard 3 - Pass Details

Date: 22 February 2026
Orbit: 507 x 3205 km, 33.4° (Epoch: 10 March)

Event Time Altitude Azimuth Distance (km) Brightness Sun altitude
Rises 18:29:05 0° 226° (SW) 7,104 12.5 47.8°
Reaches altitude 10° 18:34:20 10° 222° (SW) 5,944 12.3 47.6°
Maximum altitude 18:50:59 51° 154° (SSE) 2,770 11.1 46.6°
Drops below altitude 10° 19:01:28 10° 82° (E) 3,876 10.5 45.8°
Sets 19:04:07 0° 77° (ENE) 4,557 10.7 45.6°
